User: anonymous   Login
Location: Unspecified
(0.0000°N, 0.0000°E)
Time: 07:16:42
(UTC+01:00)
Language:

ITAMSAT 1 - Orbit

View from above orbital plane
View from above orbital plane
View from above satellite
View from above satellite

Ground track
Ground track

The orbit data is extracted from the following two-line orbital elements,

1 22826U 93061D   17080.85117792 +.00000024 +00000-0 +26926-4 0  9990
2 22826 098.7961 045.5007 0008257 211.3661 148.7029 14.30317395224842
Epoch (UTC): 21 March 2017 20:25:41
Eccentricity: 0.0008257
inclination: 98.7961°
perigee height: 785 km
apogee height: 796 km
right ascension of ascending node: 45.5007°
argument of perigee: 211.3661°
revolutions per day: 14.30317395
mean anomaly at epoch: 148.7029°
orbit number at epoch: 22484

The dashed part of the orbit path shows where the satellite is in the earth's shadow,  

DLR